THORAD DELTA 1 DEB, 9986

Orbit data source: Space-Track

THORAD DELTA 1 DEB, 9986 is space debris in LEO originally from a launch on Fri, 15 Nov 1974 UTC launched from the Air Force Western Test Range (AFWTR). Debris objects in space refer to the collection of defunct objects orbiting the Earth. Examples of debris include non-operational satellites, rocket bodies, and fragments generated from explosions, collisions, or faulty payload assembly.

Loading next visibility...
Identifier
9986, 1974-089ED
Orbit
LEO
Country
Flag of USUS
Related business
Manufacturer
Unknown
Mission
Spacecraft
Bus & Motor
Unknown
Mass
Unknown
Launch date (UTC)
1974-11-15 (51 years ago)
Launch vehicle
Unknown
Launch site
Air Force Western Test Range (AFWTR)
Object type
Payload
Rocket body
Debris
Shape & HBR
Unknown shape, 1.1 m
Radar Cross Section
Small (<0.1 m²)

Expand to show TLE details & history
Last TLE update: 13 hours ago

TLE from 13 hours ago
0 THORAD DELTA 1 DEB
1  9986U 74089ED  26035.25995655  .00014013  00000-0  14106-1 0  9994
2  9986 103.2692 285.9811 0387084  51.9399 311.5990 13.49076154413777
Epoch: 2026-02-04T06:14Z
TLE epoch observation values (Epoch: 2026-02-04T06:14:20.245Z)
Latitude
-0.00005°
Longitude
57.96766°
Altitude
893.206 km
Speed
7.497 km/s
True Right ascension
19h 03m 55s
True Declination
0° 00' 00"
Sunlit
Object was in daylight at epoch
Visualization orbit readout
Latitude
Unknown
Longitude
Unknown
Altitude
Unknown
Speed
Unknown
Apparent Right ascension
Unknown
Apparent Declination
Unknown
Sunlit
N/A
Visualization observer readout
Local Sidereal Time
21:22:50
Azimuth
Unknown
Elevation
Unknown
Doppler factor
Unknown
Orbital elements
Apogee altitude
1,361.6 km
Perigee altitude
784.743 km
Semi-major axis
7,451.309 km
Eccentricity
0.03871
Inclination
103.2692°
RAAN
285.9811°
Arg. of periapsis
51.9399°
True anomaly
308.17408°
Mean anomaly
311.599°
Eccentric anomaly
309.8975°
Mean motion
3.37438 °/min
Orbital period
106.69 mins
BSTAR
0.014106
Loading maneuver chart data...
Computing Atmospheric mass density...

Documentation

Showing up to 5 results
|